Theta_e
306 305 307 307 308 310 310 310 311 313 314 315 314 314 313 312 310 309 305 307 309 304 305 307 307 304 304 303 301 304 308 309 308 305 303 303 302 304 303 303 302 301 301 302 301 298 294 313 312 305 311 316 318 319
306 306 306 307 307 310 310 310 312 313 313 314 314 313 312 312 310 306 303 308 311 308 305 308 310 311 309 307 305 307 308 308 310 307 307 307 304 304 302 299 307 301 306 305 304 303 311 312 309 313 312 316 314 314
307 306 306 307 307 307 310 311 312 312 312 312 312 312 311 311 309 306 307 308 308 304 304 301 303 307 310 311 312 305 309 312 311 313 311 308 303 307 301 303 303 306 310 307 306 308 309 311 311 314 313 312 315 316
307 306 306 306 306 307 307 309 310 310 310 310 310 310 309 310 310 307 308 307 306 303 297 297 307 308 311 311 310 310 311 312 313 313 310 309 306 309 306 306 306 308 309 306 306 310 309 308 311 312 313 313 313 312
306 307 306 306 306 306 306 307 308 308 309 309 309 309 308 309 309 307 307 307 308 303 297 299 306 308 309 310 309 309 310 309 308 306 309 308 310 309 310 309 307 310 308 307 306 309 309 306 311 313 309 309 310 310
306 306 306 307 307 306 306 307 307 308 308 309 309 311 311 309 307 304 302 305 308 308 301 297 304 306 308 310 309 308 309 309 309 307 307 309 310 310 306 304 307 311 313 314 309 314 313 314 314 311 309 308 309 309
304 306 306 306 307 307 307 307 307 308 308 309 309 309 309 307 306 302 300 304 306 308 301 298 299 303 307 309 309 309 309 309 309 307 306 307 310 311 307 303 308 312 314 314 314 314 310 313 309 309 309 309 310 310
303 304 306 306 306 307 308 308 308 308 308 308 309 309 308 307 305 303 306 306 307 305 304 297 298 301 307 306 305 308 308 308 307 306 304 305 308 308 303 305 308 313 314 314 314 312 311 310 309 308 309 309 307 308
302 303 304 306 306 307 307 308 308 308 308 307 308 307 305 303 301 305 310 307 308 306 299 298 295 297 305 303 306 306 307 303 305 304 302 304 302 302 305 304 310 313 313 313 314 310 310 307 307 307 307 306 306 307
301 302 303 304 305 306 307 307 308 308 307 306 304 299 297 302 307 310 305 302 302 301 303 298 301 298 302 303 304 304 304 302 299 302 303 300 300 301 307 309 312 311 309 312 308 306 307 306 306 306 305 305 305 305
301 302 302 302 304 306 307 307 307 305 304 300 299 299 303 308 306 302 295 295 296 293 297 300 300 298 302 301 302 303 301 301 296 299 300 299 299 305 308 309 310 311 311 311 312 311 310 309 306 305 304 305 305 306
301 302 303 302 303 306 307 305 304 301 300 301 302 303 304 302 298 294 291 294 292 290 296 296 298 300 301 305 304 303 299 300 293 302 300 297 304 306 307 307 309 311 311 310 310 309 308 307 306 306 305 305 305 306
301 302 303 301 302 306 306 306 306 305 305 304 301 298 297 295 288 289 286 290 291 296 297 296 296 300 302 304 300 302 297 297 302 298 297 302 305 306 307 308 308 310 310 309 308 308 308 307 307 306 305 306 305 304
303 303 303 302 303 306 306 306 306 305 303 298 294 286 290 289 290 292 293 294 298 298 297 297 298 300 300 300 299 295 298 301 294 293 295 304 306 306 308 309 308 308 309 308 308 307 306 306 306 306 306 306 305 304
303 302 302 301 302 306 306 306 305 304 300 296 294 287 289 294 295 296 297 297 298 299 298 299 298 300 297 297 298 297 295 292 294 295 302 306 307 307 308 309 308 308 308 308 308 307 306 306 306 305 305 305 305 305
303 301 300 302 303 306 305 304 304 302 300 298 296 293 295 293 294 295 295 296 299 299 300 301 296 296 294 296 294 293 293 291 298 303 306 307 307 308 308 309 309 309 309 308 307 307 306 306 306 305 305 305 305 306
302 298 303 303 304 304 304 302 301 297 296 295 294 297 296 296 295 297 298 299 302 300 296 299 294 292 296 293 292 295 295 299 304 306 307 309 308 308 309 308 308 308 308 308 306 306 307 307 307 306 304 305 306 306
299 303 303 305 304 302 301 301 298 296 293 294 294 296 297 299 298 299 302 303 301 300 300 297 298 295 293 291 293 301 304 305 307 308 306 308 309 310 310 309 308 307 307 307 307 307 307 306 306 305 306 306 306 306
301 303 304 304 303 299 295 297 299 291 293 296 297 299 299 299 301 301 302 304 304 303 302 299 296 295 297 300 302 304 306 306 305 306 307 309 310 310 309 309 307 308 307 307 307 307 307 307 307 306 307 306 305 306
303 304 304 304 304 298 293 295 300 294 292 295 297 297 299 299 301 301 303 303 303 301 299 297 299 301 303 305 307 308 308 308 307 305 304 307 309 310 309 309 308 308 307 308 308 300 307 307 307 308 307 308 307 306
301 302 303 302 301 299 297 296 295 296 296 295 297 297 297 300 299 299 300 301 301 299 299 301 304 304 305 306 307 309 308 309 309 309 307 305 308 309 308 308 308 307 306 307 307 305 302 307 307 308 308 308 309 309
300 302 301 302 297 297 296 297 295 297 296 296 296 297 296 295 296 298 300 299 299 300 301 304 305 305 305 306 307 309 310 310 308 304 301 303 306 307 307 308 307 306 304 304 306 308 309 308 308 304 306 308 305 309
301 301 300 297 292 290 290 297 293 293 291 292 294 292 293 294 297 299 297 297 298 301 303 305 305 307 306 306 308 309 310 310 308 309 307 309 309 310 309 309 309 307 304 304 305 307 308 301 304 303 304 306 308 306
299 297 293 291 290 288 292 290 292 291 291 290 290 288 290 293 296 295 293 296 300 301 302 304 305 304 304 306 306 307 307 309 308 307 308 308 307 307 309 309 310 310 311 311 309 308 308 309 302 304 305 304 307 306
288 287 290 285 292 288 286 287 288 288 287 289 288 288 291 295 292 291 291 296 297 300 302 304 305 306 305 304 304 304 305 307 306 305 306 308 307 306 306 308 308 310 309 308 307 307 308 306 305 305 305 304 306 307
282 288 288 289 289 288 287 285 286 286 287 287 289 292 294 293 289 289 294 298 299 300 302 304 304 304 304 306 304 304 306 306 307 306 306 308 309 308 307 306 306 308 309 310 309 308 308 308 306 306 305 302 293 305
284 287 292 295 293 292 290 291 292 290 287 286 290 291 292 288 289 295 301 303 302 304 305 308 307 307 306 304 304 306 306 307 308 308 310 309 309 310 309 307 306 309 310 309 310 309 308 308 308 306 305 305 305 305
291 292 289 292 292 294 290 290 289 289 291 293 293 290 290 291 293 301 303 305 305 305 306 306 307 307 307 306 306 306 306 308 308 309 309 309 310 311 310 310 311 291 309 311 310 310 310 310 309 307 305 304 306 306
291 295 295 291 292 292 292 291 293 296 299 296 294 293 296 301 304 304 305 305 306 306 305 305 305 306 304 304 305 305 305 305 303 301 301 302 304 306 308 309 309 309 310 310 290 296 308 309 309 308 308 309 308 306
292 296 293 291 290 290 295 297 296 300 301 301 301 301 301 302 303 305 304 305 304 304 305 305 305 305 303 304 302 301 305 308 308 306 303 303 304 308 310 308 307 308 307 306 309 309 288 302 299 309 306 306 307 306
297 295 294 294 293 296 298 300 299 301 301 300 301 300 300 301 303 305 305 305 305 304 304 303 304 305 305 305 305 304 304 307 308 308 308 308 308 309 310 310 311 310 308 307 307 308 306 306 308 308 305 304 305 303
298 296 295 293 295 299 300 299 299 298 299 298 298 300 299 299 298 302 304 305 304 303 298 302 305 304 304 306 306 307 291 309 309 309 307 307 310 309 310 309 306 306 308 308 309 306 306 305 302 305 306 307 307 304
298 299 298 296 296 296 298 298 297 296 297 297 298 299 299 299 295 301 305 305 305 305 305 306 307 307 308 308 308 307 298 310 303 291 290 290 291 296 306 310 306 306 310 309 308 308 306 304 303 306 306 306 307 306
Wind_Speed
10 14 20 20 20 22 21 18 18 23 27 26 25 23 21 16 11 2 3 1 0 1 1 2 1 1 2 2 2 4 2 1 2 4 1 2 1 3 2 1 1 3 4 3 2 4 3 15 4 6 10 15 12 13
9 13 17 19 25 12 12 17 19 29 26 25 25 22 19 15 11 4 3 0 0 0 3 2 5 6 2 1 1 1 2 2 2 3 1 2 2 2 2 2 1 3 2 1 4 4 5 6 7 7 11 11 7 9
11 10 14 18 21 22 13 20 27 28 26 26 24 21 16 14 10 5 3 2 1 1 3 2 3 3 3 7 3 2 1 0 2 2 2 2 2 2 3 2 2 3 3 3 3 5 6 5 6 15 13 12 10 6
14 8 10 15 17 19 20 23 24 25 25 21 19 18 15 11 11 7 2 1 1 2 2 1 3 3 1 5 5 3 3 3 3 1 2 1 1 2 1 2 2 1 3 4 3 5 7 7 9 12 9 9 13 12
13 12 7 10 15 16 17 18 19 21 20 18 16 16 15 14 12 5 1 1 1 1 1 3 6 1 3 5 6 6 2 2 1 1 1 2 2 2 1 1 3 5 3 3 3 6 8 2 1 4 5 6 10 13
13 12 11 9 11 14 14 15 14 15 15 14 14 13 16 15 10 2 2 2 2 0 1 1 3 1 3 5 7 6 3 2 1 2 2 1 0 1 1 2 1 5 3 3 5 7 7 7 5 7 4 7 6 6
11 11 10 8 8 10 13 14 14 12 10 12 11 12 13 10 2 1 1 3 4 1 0 2 1 1 1 4 3 3 1 2 1 1 1 1 2 2 1 2 4 5 5 5 10 7 5 3 3 5 6 6 9 11
9 10 9 7 5 8 10 12 13 12 11 11 13 14 11 6 1 1 1 6 2 2 1 1 1 2 0 3 3 1 3 1 1 1 1 1 3 1 3 2 1 7 9 6 12 9 9 8 8 8 8 9 13 13
6 7 8 9 6 7 9 12 12 12 12 13 15 13 4 2 1 1 5 10 1 1 1 1 2 3 1 2 2 3 1 3 1 2 1 3 2 4 0 3 6 8 7 8 11 8 10 12 11 10 10 11 12 11
2 4 6 8 5 6 11 12 12 12 12 11 2 2 3 2 2 9 2 2 1 1 1 2 0 1 1 2 2 3 0 2 3 2 2 3 2 1 4 4 4 5 9 14 14 10 12 11 10 9 10 8 8 8
2 2 6 7 5 6 11 13 14 12 4 1 1 2 1 0 2 1 2 1 1 2 3 1 4 1 1 2 3 1 3 2 3 4 3 3 3 2 2 3 5 10 10 6 11 12 11 11 9 8 8 8 7 7
6 3 8 5 5 6 13 14 8 3 1 3 3 2 1 2 2 2 2 2 4 3 3 3 3 3 1 1 2 2 2 2 2 2 3 3 2 2 5 6 6 7 13 17 15 15 12 10 8 8 8 8 7 6
11 7 8 3 6 6 14 12 8 5 4 2 2 3 1 1 3 6 7 3 3 4 4 4 4 2 2 2 3 1 3 2 2 3 2 1 4 5 8 9 11 11 14 17 14 11 11 10 8 8 8 6 6 6
14 10 9 5 5 13 13 10 7 4 2 2 3 2 2 3 3 4 3 2 2 2 5 3 3 1 1 2 0 2 2 2 2 3 2 4 7 9 9 9 13 14 14 14 12 11 10 9 8 7 7 5 5 6
15 13 9 4 3 10 8 8 8 3 1 2 2 3 4 1 2 2 2 2 2 1 4 3 3 1 2 3 1 2 3 2 3 2 1 5 10 9 9 10 12 12 11 10 10 9 8 7 7 7 6 6 6 6
17 11 1 7 2 13 11 5 3 1 1 1 1 2 2 2 1 1 2 3 2 3 2 1 2 3 2 3 3 3 4 3 1 2 3 8 10 9 11 11 10 10 10 10 8 8 7 6 7 7 6 6 6 7
7 2 9 8 11 14 10 2 1 1 0 1 1 1 1 0 1 0 1 1 1 4 5 2 3 1 3 3 3 3 3 1 0 2 5 6 10 12 12 11 11 10 10 9 8 7 7 7 7 6 7 6 6 6
4 8 12 8 3 5 1 0 1 1 2 2 1 2 1 1 2 0 1 1 3 3 3 2 4 2 2 4 3 2 2 2 1 4 5 7 9 10 11 13 11 10 9 8 8 7 7 6 5 5 7 7 6 5
8 7 10 4 4 3 3 3 2 2 3 2 2 2 1 1 1 3 3 1 1 2 4 2 3 2 2 3 2 3 4 4 5 5 4 5 8 10 12 10 9 9 8 8 7 5 5 5 4 4 5 5 4 4
10 10 8 7 6 0 2 1 2 2 0 1 2 1 0 1 3 1 2 1 1 1 2 2 2 2 2 1 2 2 5 6 8 8 6 4 5 9 10 8 6 7 6 5 4 3 4 4 3 4 4 4 4 4
4 3 5 2 3 4 1 2 2 0 1 0 2 2 1 1 2 4 4 4 3 0 1 2 1 1 1 1 2 5 6 6 5 4 6 7 5 6 6 5 6 5 5 6 5 4 3 3 3 4 5 4 3 3
2 7 2 3 0 2 3 3 1 1 1 1 1 2 2 2 3 2 3 1 2 1 1 1 2 3 3 3 3 4 7 7 5 6 7 10 7 6 6 6 6 6 4 4 4 4 4 4 4 4 4 4 4 4
1 2 1 1 2 3 1 2 0 3 1 1 0 1 1 1 2 3 1 1 2 1 1 1 3 4 5 4 6 6 5 7 5 5 5 4 4 5 5 6 5 5 5 4 4 3 4 4 6 5 4 4 5 5
1 2 2 2 2 2 1 3 1 1 1 2 2 1 0 1 2 0 2 2 2 1 2 4 5 5 5 5 6 4 3 3 4 4 3 5 5 4 3 4 4 4 4 2 5 5 5 5 5 6 6 6 6 7
3 3 2 2 1 2 2 1 1 1 2 1 1 0 1 0 0 1 2 3 1 2 3 4 4 2 4 4 4 4 3 4 5 5 4 3 4 4 3 2 3 2 3 4 5 6 5 5 6 7 7 6 8 9
2 1 1 2 1 1 2 2 2 2 2 1 2 1 1 1 2 4 3 2 2 3 5 7 7 5 4 3 5 4 4 3 4 4 4 4 5 4 5 5 4 4 5 5 4 5 6 6 7 9 9 8 7 7
1 2 2 0 1 2 2 1 2 2 2 3 2 3 2 3 3 2 1 1 2 1 2 4 6 6 5 6 3 3 4 4 2 2 3 4 3 2 3 3 4 2 4 5 5 6 7 7 8 9 9 6 7 8
3 2 4 4 3 2 1 3 3 4 3 3 2 4 3 3 1 1 1 1 2 1 2 3 3 3 3 4 5 6 5 5 5 5 4 2 2 2 3 3 3 2 2 4 5 5 6 5 7 8 8 6 8 6
3 2 4 5 3 3 4 4 4 3 2 3 2 2 2 0 1 1 1 1 1 3 5 6 4 4 5 5 5 3 5 5 5 4 4 3 2 3 4 4 4 4 4 4 4 4 5 5 5 6 9 10 7 4
4 5 4 4 3 5 4 5 2 2 2 1 1 1 1 1 1 1 1 2 1 3 3 4 5 5 6 6 4 3 2 3 3 4 4 4 3 1 2 3 3 4 4 5 6 4 3 5 4 4 5 5 5 6
2 5 3 5 4 4 5 5 3 0 1 2 2 3 1 1 1 1 2 2 3 3 4 5 4 3 5 5 4 4 3 4 6 7 5 3 3 3 4 3 3 3 4 5 6 6 5 6 6 6 5 5 6 7
5 7 4 5 2 2 4 5 5 4 4 4 3 3 3 2 3 3 4 4 4 4 3 4 5 4 4 2 2 1 2 1 2 4 6 5 4 3 4 3 2 3 4 7 6 5 7 7 4 6 6 9 10 8
3 3 3 1 2 4 3 3 4 3 3 3 3 5 5 4 4 2 2 3 3 4 5 5 4 3 4 6 5 3 3 3 2 2 2 2 1 1 3 2 1 4 6 7 6 6 9 7 5 6 7 8 8 8
Wind_Direction
6 2 360 4 3 169 172 182 194 185 172 162 154 149 153 159 155 128 96 359 3 173 275 238 278 136 139 40 3 11 220 85 59 77 116 133 164 111 183 118 221 217 194 198 185 245 263 359 360 2 340 320 304 3
22 17 12 20 27 151 172 176 186 153 148 149 140 138 146 150 141 112 115 142 311 84 324 299 277 274 272 321 327 59 50 72 77 100 115 127 146 166 159 199 152 219 270 43 242 8 51 38 53 4 1 331 35 353
27 45 25 38 38 34 99 161 129 131 128 129 127 135 146 147 125 92 114 114 126 4 266 282 246 59 168 222 219 328 107 56 112 345 125 113 160 168 193 192 191 184 190 236 248 85 60 53 37 20 12 325 351 352
21 76 47 58 57 50 50 78 100 112 113 114 128 133 142 143 130 81 92 110 77 93 248 290 336 276 81 167 181 188 85 101 85 311 79 103 123 224 101 60 257 48 167 218 235 144 112 46 32 27 338 337 341 325
23 36 73 75 85 78 70 74 84 97 110 118 135 141 149 151 120 92 96 113 83 304 291 292 309 348 260 179 166 165 112 63 12 127 76 83 102 170 78 240 240 184 206 225 57 94 110 220 335 52 318 324 300 312
27 31 42 72 104 106 101 97 103 104 114 121 133 135 138 128 126 167 146 147 203 338 311 307 4 326 86 117 130 142 141 95 40 351 52 119 300 251 189 243 166 186 185 134 143 164 136 154 46 356 5 31 15 20
35 34 41 52 73 110 123 116 110 104 105 124 121 120 120 120 113 49 53 97 146 194 70 287 85 65 47 130 104 121 93 84 327 89 236 53 138 241 193 273 32 168 157 128 150 124 130 80 26 19 40 55 70 67
39 40 45 61 73 107 114 125 122 123 118 123 126 118 123 137 275 185 138 180 110 107 75 286 233 171 307 132 127 6 124 157 78 37 171 205 144 249 247 41 272 155 156 136 161 68 90 107 94 74 73 78 67 60
42 45 50 55 88 111 126 123 126 124 124 122 121 120 109 74 129 64 106 128 123 359 67 239 209 137 60 91 94 124 248 179 74 231 174 220 144 216 235 290 189 164 173 149 141 105 104 97 95 84 78 65 68 59
53 58 67 44 56 127 125 128 130 126 115 114 107 143 125 165 150 149 156 142 142 45 142 247 174 166 229 166 113 143 265 137 187 112 147 235 228 331 280 260 223 162 137 141 131 130 123 112 105 92 80 71 68 64
172 89 93 53 21 142 132 127 120 112 94 70 93 71 37 22 169 42 90 148 152 220 189 222 223 138 136 174 136 269 140 152 203 123 250 189 218 162 320 159 122 133 135 113 106 113 116 115 115 106 92 83 79 75
171 140 96 57 14 141 136 127 116 80 78 105 101 111 145 139 89 133 139 154 211 223 181 190 178 208 126 289 150 161 124 191 164 130 231 217 116 81 128 121 117 112 118 114 113 115 113 109 102 92 82 73 66 67
156 145 117 102 347 149 122 102 86 108 121 59 56 92 148 126 134 189 177 189 213 190 178 172 159 170 150 180 83 155 167 147 146 196 241 52 120 124 125 130 118 120 120 109 112 116 116 106 91 88 91 78 67 58
143 135 126 114 327 142 115 98 84 70 86 137 136 76 222 173 214 190 196 189 194 211 165 158 123 167 113 113 103 146 84 191 170 215 213 148 157 141 138 133 133 133 121 126 129 120 103 95 95 97 86 74 80 81
126 112 119 102 351 142 119 87 54 41 42 109 155 159 195 215 244 234 240 264 194 138 148 144 102 177 76 105 28 116 164 209 231 227 172 147 151 151 142 143 139 133 136 131 119 113 112 113 113 100 82 83 96 97
123 105 58 139 67 106 103 59 34 4 88 215 177 167 162 190 151 171 214 245 161 158 153 167 135 127 124 137 169 197 175 212 193 210 136 144 151 149 145 142 139 137 129 122 122 123 125 124 115 105 100 98 98 97
91 95 165 137 107 88 73 15 351 301 350 287 98 55 3 339 337 346 237 177 132 181 173 146 127 82 111 144 175 207 208 86 236 149 140 145 150 146 140 136 136 132 133 133 131 130 118 120 127 123 111 113 116 103
77 150 145 145 124 83 3 52 292 336 53 35 66 9 356 9 333 270 288 198 205 175 164 117 125 122 155 165 189 198 179 87 88 128 118 122 128 139 141 137 139 139 137 136 130 128 137 141 142 120 122 129 126 122
140 142 145 79 106 101 11 32 0 39 19 355 340 328 304 323 256 286 308 261 252 277 130 99 103 154 189 208 205 164 153 155 149 123 117 121 139 138 131 128 128 128 131 135 148 157 158 167 139 150 151 162 146 142
118 139 125 56 40 77 62 28 358 290 289 331 266 321 41 14 309 319 14 58 81 342 82 103 153 170 211 229 187 131 131 142 139 129 123 123 134 134 139 142 135 134 136 133 140 146 157 168 174 168 185 174 175 164
114 165 221 240 191 213 197 170 160 23 330 16 347 355 343 319 30 17 21 340 54 326 181 181 178 138 194 78 106 130 134 151 147 141 142 147 152 146 140 135 144 157 163 171 177 168 204 190 158 169 168 181 170 155
168 174 219 209 263 31 69 36 20 357 344 3 12 333 31 28 24 28 308 282 223 219 197 155 135 136 135 118 125 139 140 131 112 111 95 122 148 161 168 170 174 179 181 192 186 186 195 184 162 164 188 158 166 161
169 166 143 51 98 50 48 339 69 12 147 33 300 84 69 50 344 302 293 265 283 282 135 108 122 126 110 95 112 113 131 139 127 140 147 158 155 166 165 176 187 187 192 207 196 191 209 187 172 174 165 185 159 149
23 51 51 55 62 92 354 32 13 18 37 41 30 66 93 5 325 9 270 256 248 130 170 154 144 120 106 109 120 140 130 138 122 124 145 157 161 168 181 183 191 207 221 183 193 200 208 204 173 179 181 187 193 171
51 358 47 35 116 117 102 107 83 84 113 140 201 201 67 347 303 266 252 266 236 200 161 165 159 138 139 130 136 133 154 168 158 150 157 167 132 129 145 163 169 185 178 188 191 201 200 187 193 191 185 184 203 195
53 312 84 158 108 165 140 120 154 168 184 185 221 240 195 199 230 235 230 228 228 202 178 179 171 157 164 170 155 165 162 161 148 145 155 176 173 170 173 195 199 202 199 216 219 216 217 203 204 201 198 188 198 189
288 245 180 250 303 138 147 133 149 184 195 213 203 187 191 219 236 243 279 237 283 254 222 188 182 179 164 155 142 130 133 150 89 84 119 165 180 207 223 235 240 232 175 198 209 226 234 225 215 204 197 188 193 194
234 219 208 166 198 225 221 188 202 209 210 192 188 193 210 221 265 323 286 4 308 285 159 134 129 121 124 142 138 138 126 122 114 110 109 118 151 187 212 217 215 146 225 210 218 218 224 226 211 199 181 193 207 185
231 209 187 180 166 198 223 232 208 216 200 180 204 196 217 256 324 307 12 33 110 135 131 134 112 103 90 97 105 110 138 146 138 171 225 249 257 223 204 219 223 217 220 218 187 249 239 240 215 198 198 209 193 174
229 188 192 147 197 217 216 193 215 218 193 226 300 179 213 214 22 288 195 163 112 89 96 113 132 142 137 144 140 122 179 196 216 226 240 245 245 238 220 196 205 213 210 226 232 184 138 183 141 169 183 182 194 184
179 182 225 180 213 224 215 186 169 186 199 215 220 247 170 106 154 162 179 135 120 123 134 134 133 144 156 163 174 173 196 197 219 225 232 239 241 241 241 223 230 221 213 206 215 212 189 203 202 202 186 203 211 214
187 199 207 201 212 132 145 176 177 207 188 197 175 166 158 170 187 182 177 178 179 176 194 179 186 195 202 175 182 205 203 226 205 215 211 219 237 225 233 201 219 239 220 212 204 201 206 202 193 216 225 228 224 214
182 179 194 203 164 188 159 168 184 174 193 210 204 191 189 195 213 166 154 218 223 196 187 196 196 174 173 189 199 197 210 238 233 225 204 198 201 245 258 247 229 247 215 198 206 208 203 196 222 241 240 238 233 216